Location: Newark
(48.2308°N, 120.8549°W)
Time: 22:13:55
(UTC+00:00)

deb Explorer IX - All Passes

Search period start: 25 May 2020 00:00
Search period end: 04 June 2020 00:00
Orbit: 545 x 1101 km, 38.8° (Epoch: 22 May)

Date Brightness Start Highest point End Pass type
(mag) Time Alt. Az. Time Alt. Az. Time Alt. Az.
25 May - 04:27:35 10° S 04:30:36 16° SSE 04:33:51 10° ESE visible
25 May - 06:11:49 10° SW 06:16:31 31° S 06:21:54 10° ESE visible
25 May - 07:57:45 10° WSW 08:02:55 33° S 08:08:45 10° SE visible
25 May - 09:44:44 10° WSW 09:49:16 20° SSW 09:54:10 10° SSE visible
26 May - 04:05:11 10° S 04:08:00 15° SSE 04:11:02 10° ESE daylight
26 May - 05:49:22 10° SW 05:53:55 30° SSE 05:59:05 10° ESE visible
26 May - 07:35:15 10° WSW 07:40:15 32° S 07:45:55 10° SE visible
26 May - 09:22:15 10° WSW 09:26:35 20° SSW 09:31:16 10° SSE visible
27 May - 03:42:48 10° S 03:45:25 15° SSE 03:48:14 10° ESE daylight
27 May - 05:26:56 10° SW 05:31:18 29° S 05:36:17 10° ESE visible
27 May - 07:12:47 10° WSW 07:17:36 31° S 07:23:05 10° SE visible
27 May - 08:59:48 10° WSW 09:03:55 19° SSW 09:08:22 10° SSE visible
28 May - 03:20:24 10° S 03:22:51 14° SSE 03:25:26 10° ESE daylight
28 May - 05:04:30 10° SW 05:08:42 28° S 05:13:29 10° ESE visible
28 May - 06:50:21 10° WSW 06:54:58 30° S 07:00:15 10° SE visible
28 May - 08:37:21 10° WSW 08:41:15 18° SSW 08:45:27 10° SSE visible
29 May - 02:58:01 10° S 03:00:17 13° SSE 03:02:39 10° ESE daylight
29 May - 04:42:04 10° SW 04:46:07 27° S 04:50:42 10° ESE visible
29 May - 06:27:54 10° WSW 06:32:21 28° S 06:37:25 10° SE visible
29 May - 08:14:57 10° WSW 08:18:35 17° SSW 08:22:32 10° SSE visible
30 May - 02:35:38 10° S 02:37:43 13° SSE 02:39:53 10° SE daylight
30 May - 04:19:38 10° SW 04:23:32 26° S 04:27:56 10° ESE daylight
30 May - 06:05:28 10° WSW 06:09:44 27° S 06:14:35 10° SE visible
30 May - 07:52:33 10° WSW 07:55:56 16° SSW 07:59:36 10° SSE visible
31 May - 02:13:14 10° S 02:15:09 13° SSE 02:17:08 10° SE daylight
31 May - 03:57:12 10° SW 04:00:57 25° S 04:05:10 10° ESE daylight
31 May - 05:43:03 10° WSW 05:47:08 26° S 05:51:46 10° SE visible
31 May - 07:30:11 10° WSW 07:33:18 15° SSW 07:36:39 10° S visible
01 Jun - 01:50:49 10° S 01:52:35 12° SSE 01:54:25 10° SE daylight
01 Jun - 03:34:46 10° SW 03:38:24 25° S 03:42:25 10° ESE daylight
01 Jun - 05:20:38 10° WSW 05:24:33 25° S 05:28:57 10° SE visible
01 Jun - 07:07:51 10° WSW 07:10:41 14° SSW 07:13:42 10° S visible
02 Jun - 01:28:23 10° S 01:30:02 12° SSE 01:31:44 10° SE daylight
02 Jun - 03:12:20 10° SW 03:15:51 24° S 03:19:42 10° ESE daylight
02 Jun - 04:58:12 10° WSW 05:01:57 24° S 05:06:09 10° SE visible
02 Jun - 06:45:32 10° SW 06:48:03 14° SSW 06:50:43 10° S visible
03 Jun - 01:05:55 10° S 01:07:29 12° SSE 01:09:04 10° SE daylight
03 Jun - 02:49:53 10° SW 02:53:17 23° S 02:57:00 10° ESE daylight
03 Jun - 04:35:46 10° WSW 04:39:23 23° S 04:43:22 10° SE visible
03 Jun - 06:23:16 10° SW 06:25:26 13° SSW 06:27:44 10° S visible
